FENGYUN 1C DEB, 30756

Orbit data source: Space-Track

FENGYUN 1C DEB, 30756 is space debris in SSO originally from a launch on Mon, 10 May 1999 UTC launched from the Taiyaun Space Center, China (TSC). Fengyun 1C debris stems from the Chinese weather satellite Fengyun-1C, which was intentionally destroyed by a Chinese anti-satellite missile in 2007. This event dramatically increased the amount of space debris, with thousands of trackable fragments posing hazards to satellites and human spaceflight. The Fengyun 1C debris cloud has become a focal point in discussions about space sustainability and the need for international regulations to prevent the creation of new debris.

Loading next visibility...
Identifier
30756, 1999-025ATS
Orbit
SSO
Country
Flag of CNCN / PRC
Related business
Manufacturer
Unknown
Mission
Spacecraft
Bus & Motor
Unknown
Mass
Unknown
Launch date (UTC)
1999-05-10 (27 years ago)
Launch vehicle
Unknown
Launch site
Taiyaun Space Center, China (TSC)
Object type
Payload
Rocket body
Debris
Shape & HBR
Unknown shape, 0.1 m
Radar Cross Section
Small (<0.1 m²)

Expand to show TLE details & history
Last TLE update: 2 days ago

TLE from 2 days ago
0 FENGYUN 1C DEB
1 30756U 99025ATS 26105.19074910  .00001134  00000-0  55123-3 0  9999
2 30756  98.9774 179.2170 0070020 325.3744  90.8778 14.19066182981556
Epoch: 2026-04-15T04:34Z
TLE epoch observation values (Epoch: 2026-04-15T04:34:40.722Z)
Latitude
56.08661°
Longitude
-106.32616°
Altitude
838.946 km
Speed
7.438 km/s
True Right ascension
11h 02m 47s
True Declination
55° 55' 44"
Sunlit
Object was in daylight at epoch
Visualization orbit readout
Latitude
Unknown
Longitude
Unknown
Altitude
Unknown
Speed
Unknown
Apparent Right ascension
Unknown
Apparent Declination
Unknown
Sunlit
N/A
Visualization observer readout
Local Sidereal Time
03:40:07
Azimuth
Unknown
Elevation
Unknown
Doppler factor
Unknown
Orbital elements
Apogee altitude
876.126 km
Perigee altitude
775.244 km
Semi-major axis
7,203.822 km
Eccentricity
0.007
Inclination
98.9774°
RAAN
179.217°
Arg. of periapsis
325.3744°
True anomaly
91.67994°
Mean anomaly
90.8778°
Eccentric anomaly
91.27889°
Mean motion
3.54976 °/min
Orbital period
101.42 mins
BSTAR
0.00055123
Loading maneuver chart data...
Computing Atmospheric mass density...
Loading historical data...
Loading historical data...
Loading historical data...
Loading historical data...
Loading historical data...
Loading historical data...
Loading historical data...

Documentation

Showing up to 5 results
|